Weather History for West Palm Beach, FL

Change the Weather History Date:

Saturday, October 27, 2012

  Actual Average Record
Temperature  
Mean Temperature 75 °F 76 °F  
Max Temperature 80 °F 83 °F 90 °F (1997)
Min Temperature 70 °F 69 °F 52 °F (1890)
Degree Days  
Heating Degree Days 0 0  
Month to date heating degree days 0 0  
Since 1 July heating degree days 0 0  
Cooling Degree Days 10 11  
Month to date cooling degree days 427 370  
Year to date cooling degree days 3844 3578  
Growing Degree Days 25 (Base 50)    
Moisture  
Dew Point 63 °F    
Average Humidity 69    
Maximum Humidity 84    
Minimum Humidity 54    
Precipitation  
Precipitation T in 0.16 in 3.03 in (1915)
Month to date precipitation 9.45 4.57  
Year to date precipitation 76.85 53.64  
Snow  
Snow 0.00 in - - ()
Month to date snowfall 0.0  
Since 1 July snowfall 0.0  
Since 1 September snowfall 0.0  
Snow Depth 0.00 in    
Sea Level Pressure  
Sea Level Pressure 29.54 in    
Wind  
Wind Speed 23 mph (WNW)    
Max Wind Speed 31 mph    
Max Gust Speed 39 mph    
Visibility 10 miles    
Events Rain    
T = Trace of Precipitation, MM = Missing Value Source: NWS Daily Summary

Daily Weather History Graph

Daily Weather History Graph

Search for Another Location

Airport:

Trip Planner

Search our weather history database for the weather conditions in past years. The results will help you decide how hot, cold, wet, or windy it might be!

Date:

Astronomy

Oct. 27, 2012 Rise Set
Actual Time 7:27 AM EDT 6:41 PM EDT
Civil Twilight 7:03 AM EDT 7:04 PM EDT
Nautical Twilight 6:35 AM EDT 7:32 PM EDT
Astronomical Twilight 6:08 AM EDT 7:59 PM EDT
Moon 5:20 PM EDT (10/27) 5:28 AM EDT (10/27)
Length of Visible Light 12h 01m
Length of Day
11h 14m
Waxing Gibbous, 96% of the Moon is Illuminated
Oct 27
Waxing Gibbous
Oct 29
Full
Nov 6
Last Quarter
Nov 13
New
Nov 20
First Quarter

Hourly Weather History & Observations

Time (EDT) Temp. Heat Index Dew Point Humidity Pressure Visibility Wind Dir Wind Speed Gust Speed Precip Events Conditions
12:53 AM 71.1 °F - 66.9 °F 87% 29.49 in 10.0 mi WNW 23.0 mph 31.1 mph 0.00 in   Overcast
1:53 AM 71.1 °F - 66.9 °F 87% 29.48 in 10.0 mi WNW 21.9 mph 38.0 mph 0.00 in Rain Light Rain
2:53 AM 72.0 °F - 66.0 °F 81% 29.47 in 10.0 mi WNW 26.5 mph 32.2 mph 0.00 in   Mostly Cloudy
3:53 AM 72.0 °F - 64.9 °F 78% 29.44 in 10.0 mi WNW 23.0 mph 35.7 mph N/A   Mostly Cloudy
4:53 AM 71.1 °F - 64.0 °F 78% 29.45 in 10.0 mi WNW 21.9 mph 32.2 mph N/A   Mostly Cloudy
5:53 AM 70.0 °F - 63.0 °F 78% 29.46 in 10.0 mi West 21.9 mph 28.8 mph N/A   Mostly Cloudy
6:28 AM 69.8 °F - 62.6 °F 78% 29.47 in 10.0 mi WNW 19.6 mph 27.6 mph N/A   Partly Cloudy
6:53 AM 70.0 °F - 63.0 °F 78% 29.48 in 10.0 mi WNW 16.1 mph 27.6 mph N/A   Partly Cloudy
7:53 AM 70.0 °F - 63.0 °F 78% 29.50 in 10.0 mi West 23.0 mph 27.6 mph N/A   Scattered Clouds
8:53 AM 71.1 °F - 63.0 °F 75% 29.53 in 10.0 mi WNW 23.0 mph 34.5 mph N/A   Scattered Clouds
9:53 AM 73.0 °F - 63.0 °F 71% 29.55 in 10.0 mi WNW 20.7 mph 29.9 mph N/A   Scattered Clouds
10:53 AM 75.9 °F - 62.1 °F 62% 29.56 in 10.0 mi WNW 27.6 mph 38.0 mph N/A   Mostly Cloudy
11:53 AM 77.0 °F - 62.1 °F 60% 29.57 in 10.0 mi WNW 24.2 mph 36.8 mph N/A   Mostly Cloudy
12:53 PM 79.0 °F - 63.0 °F 58% 29.55 in 10.0 mi WNW 19.6 mph 33.4 mph N/A   Mostly Cloudy
1:53 PM 80.1 °F 81.2 °F 62.1 °F 54% 29.54 in 10.0 mi NW 25.3 mph 34.5 mph N/A   Mostly Cloudy
2:53 PM 77.0 °F - 61.0 °F 58% 29.55 in 10.0 mi WNW 25.3 mph 32.2 mph N/A   Mostly Cloudy
3:53 PM 75.9 °F - 61.0 °F 60% 29.55 in 10.0 mi NW 20.7 mph 31.1 mph N/A   Mostly Cloudy
4:53 PM 75.0 °F - 61.0 °F 62% 29.55 in 10.0 mi WNW 21.9 mph 28.8 mph N/A   Mostly Cloudy
5:53 PM 75.0 °F - 62.1 °F 64% 29.55 in 10.0 mi WNW 17.3 mph - N/A   Mostly Cloudy
6:53 PM 73.9 °F - 61.0 °F 64% 29.57 in 10.0 mi WNW 13.8 mph 21.9 mph N/A   Mostly Cloudy
7:53 PM 73.0 °F - 62.1 °F 68% 29.60 in 10.0 mi WNW 12.7 mph - N/A   Mostly Cloudy
8:53 PM 72.0 °F - 61.0 °F 68% 29.63 in 10.0 mi WNW 15.0 mph 23.0 mph N/A   Scattered Clouds
9:53 PM 71.1 °F - 62.1 °F 73% 29.65 in 10.0 mi WNW 11.5 mph 20.7 mph N/A   Scattered Clouds
10:53 PM 70.0 °F - 62.1 °F 76% 29.67 in 10.0 mi West 12.7 mph - N/A   Scattered Clouds
11:53 PM 69.1 °F - 63.0 °F 81% 29.68 in 10.0 mi West 12.7 mph - N/A   Partly Cloudy